Simultaneous Nadir Overpasses (SNOs) Predictions

Prediction of SNOs between NOAA-21 and METOP-C Satellite Orbit:

Table of predicted SNOs for the next 14.0 days since TLE Epoch: 2/10/2024
Index Date (NOAA-21) Time (NOAA-21) Lat,Lon (NOAA-21) SZA (NOAA-21 ) Date (METOP-C) Time (METOP-C) Lat,Lon (METOP-C) SZA (METOP-C ) Distance(km) Time Diff (sec)
1 02/21/2024 05:53:32 73.46, 81.53 84.54 02/21/2024 05:54:38 73.37, 84.37 84.28 90.55 66
2 02/21/2024 06:44:14 -73.36,-110.92 95.59 02/21/2024 06:45:22 -73.31,-108.45 95.80 78.92 68
3 02/21/2024 07:34:55 73.12, 56.92 84.14 02/21/2024 07:36:05 73.10, 58.43 84.01 48.96 70
4 02/21/2024 08:25:38 -73.07,-135.65 95.94 02/21/2024 08:26:49 -73.04,-134.38 96.06 41.42 71
5 02/21/2024 09:16:19 72.83, 32.17 83.79 02/21/2024 09:17:33 72.78, 32.41 83.71 9.67 74
6 02/21/2024 10:07:02 -72.78,-160.41 96.28 02/21/2024 10:08:16 -72.76,-160.29 96.32 4.01 74
7 02/21/2024 10:57:47 72.74, 6.98 83.67 02/21/2024 10:58:55 72.76, 7.02 83.66 2.49 68
8 02/21/2024 11:48:31 -72.74, 174.30 96.35 02/21/2024 11:49:38 -72.75, 174.33 96.36 1.28 67
9 02/21/2024 12:39:17 72.75, -18.42 83.65 02/21/2024 12:40:17 72.74, -18.36 83.62 2.41 60
10 02/21/2024 13:30:01 -72.75, 148.90 96.37 02/21/2024 13:31:00 -72.73, 148.94 96.41 2.93 59
11 02/21/2024 14:20:46 72.71, -43.71 83.58 02/21/2024 14:21:39 72.72, -43.74 83.58 1.22 53
12 02/21/2024 15:11:30 -72.71, 123.61 96.43 02/21/2024 15:12:22 -72.71, 123.56 96.45 1.50 52
13 02/21/2024 16:02:16 72.72, -69.11 83.57 02/21/2024 16:03:01 72.70, -69.12 83.53 2.84 45
14 02/21/2024 16:53:00 -72.72, 98.21 96.45 02/21/2024 16:53:43 -72.74, 98.29 96.45 3.11 43
15 02/21/2024 17:43:45 72.68, -94.40 83.50 02/21/2024 17:44:23 72.68, -94.50 83.49 3.43 38
16 02/21/2024 18:34:30 -72.73, 72.81 96.46 02/21/2024 18:35:05 -72.72, 72.91 96.49 3.53 35
17 02/21/2024 19:25:15 72.69,-119.80 83.49 02/21/2024 19:25:44 72.71,-119.78 83.49 1.61 29
18 02/21/2024 20:15:59 -72.69, 47.52 96.53 02/21/2024 20:16:27 -72.70, 47.53 96.53 0.51 28
19 02/21/2024 21:06:45 72.70,-145.19 83.48 02/21/2024 21:07:06 72.69,-145.16 83.45 2.36 21
20 02/21/2024 21:57:29 -72.70, 22.12 96.54 02/21/2024 21:57:49 -72.68, 22.15 96.58 3.10 20
21 02/21/2024 22:48:14 72.67,-170.49 83.41 02/21/2024 22:48:28 72.67,-170.54 83.41 1.73 14
22 02/21/2024 23:38:58 -72.67, -3.17 96.61 02/21/2024 23:39:11 -72.66, -3.23 96.62 2.29 13
23 02/22/2024 00:29:44 72.68, 164.12 83.39 02/22/2024 00:29:49 72.70, 164.18 83.41 3.20 5
24 02/22/2024 01:20:28 -72.68, -28.57 96.62 02/22/2024 01:20:32 -72.69, -28.51 96.62 2.28 4
25 02/22/2024 02:11:14 72.69, 138.72 83.38 02/22/2024 02:11:11 72.68, 138.80 83.37 3.11 3
26 02/22/2024 03:01:58 -72.69, -53.96 96.64 02/22/2024 03:01:54 -72.67, -53.89 96.66 3.25 4
27 02/22/2024 03:52:43 72.65, 113.42 83.31 02/22/2024 03:52:33 72.66, 113.42 83.32 0.85 10
28 02/22/2024 04:43:27 -72.65, -79.26 96.71 02/22/2024 04:43:16 -72.65, -79.27 96.70 0.46 11
29 02/22/2024 05:34:13 72.66, 88.03 83.30 02/22/2024 05:33:55 72.64, 88.04 83.28 2.72 18
30 02/22/2024 06:24:57 -72.66,-104.66 96.72 02/22/2024 06:24:38 -72.63,-104.65 96.75 3.50 19
31 02/22/2024 07:15:42 72.62, 62.73 83.23 02/22/2024 07:15:17 72.62, 62.66 83.24 2.49 25
32 02/22/2024 08:06:26 -72.62,-129.95 96.79 02/22/2024 08:06:00 -72.61,-130.03 96.79 3.10 26
33 02/22/2024 08:57:12 72.63, 37.34 83.22 02/22/2024 08:56:38 72.65, 37.38 83.24 2.23 34
34 02/22/2024 09:47:56 -72.63,-155.35 96.80 02/22/2024 09:47:21 -72.64,-155.31 96.79 1.45 35
35 02/22/2024 10:38:42 72.64, 11.94 83.20 02/22/2024 10:38:00 72.63, 12.00 83.19 2.89 42
36 02/22/2024 11:29:26 -72.64, 179.26 96.81 02/22/2024 11:28:43 -72.62, 179.31 96.83 3.23 43
37 02/22/2024 12:20:11 72.61, -13.36 83.14 02/22/2024 12:19:22 72.61, -13.38 83.15 0.78 49
38 02/22/2024 13:10:55 -72.61, 153.96 96.88 02/22/2024 13:10:05 -72.60, 153.93 96.87 1.24 50
39 02/22/2024 14:01:41 72.62, -38.75 83.12 02/22/2024 14:00:44 72.59, -38.76 83.11 3.38 57
40 02/22/2024 14:52:25 -72.62, 128.57 96.90 02/22/2024 14:51:26 -72.63, 128.65 96.87 3.30 59
41 02/22/2024 15:43:10 72.58, -64.05 83.05 02/22/2024 15:42:06 72.57, -64.14 83.06 3.35 64
42 02/22/2024 16:33:54 -72.58, 103.27 96.96 02/22/2024 16:32:48 -72.61, 103.27 96.92 3.72 66
43 02/22/2024 17:24:39 72.59, -89.44 83.04 02/22/2024 17:23:26 72.60, -89.42 83.07 1.25 73
44 02/22/2024 18:15:23 -72.59, 77.87 96.98 02/22/2024 18:14:09 -72.59, 77.89 96.96 0.62 74
45 02/22/2024 19:06:04 72.35,-114.33 82.75 02/22/2024 19:04:52 72.37,-115.21 82.85 29.70 72
46 02/22/2024 19:56:48 -72.35, 52.99 97.27 02/22/2024 19:55:35 -72.37, 52.10 97.18 29.82 73
47 02/22/2024 20:47:28 72.05,-139.13 82.40 02/22/2024 20:46:19 72.10,-141.08 82.58 67.10 69
48 02/22/2024 21:38:12 -72.05, 28.18 97.62 02/22/2024 21:37:03 -72.04, 26.13 97.48 70.35 69



Historial Predications of SNOs between NOAA-21 and METOP-C
